Ocala, FL

10:55 AM EDT on September 24, 2017 (GMT -0400)
Ocala Regional-Taylor

Weather History for KOCF - August, 2012

Change the Weather History Date:

Wednesday, August 22, 2012

  Actual Average Record
Temperature  
Mean Temperature 74 °F -  
Max Temperature 80 °F 88 °F 96 °F (2016)
Min Temperature 69 °F 69 °F 69 °F (1996)
Cooling Degree Days 10    
Growing Degree Days 24 (Base 50)    
Moisture  
Dew Point 72 °F    
Average Humidity 90    
Maximum Humidity 100    
Minimum Humidity 74    
Precipitation  
Precipitation 0.01 in - - ()
Sea Level Pressure  
Sea Level Pressure 30.05 in    
Wind  
Wind Speed 4 mph (South)    
Max Wind Speed 12 mph    
Max Gust Speed -    
Visibility 10 miles    
Events Rain , Thunderstorm    
Averages and records for this station are not official NWS values.
T = Trace of Precipitation, MM = Missing Value Source: NWS Daily Summary

Daily Weather History Graph

Daily Weather History Graph

Search for Another Location

Airport or City:

Trip Planner

Search our weather history database for the weather conditions in past years. The results will help you decide how hot, cold, wet, or windy it might be!

Date:

Astronomy

Aug. 22, 2012 Rise Set
Actual Time 7:01 AM EDT 8:01 PM EDT
Civil Twilight 6:36 AM EDT 8:25 PM EDT
Nautical Twilight 6:07 AM EDT 8:54 PM EDT
Astronomical Twilight 5:38 AM EDT 9:24 PM EDT
Moon 12:06 PM EDT (8/22) 11:16 PM EDT (8/22)
Length of Visible Light 13h 48m
Length of Day
12h 59m
Waxing Crescent, 29% of the Moon is Illuminated
Aug 22
Waxing Crescent
Aug 24
First Quarter
Aug 31
Full
Sep 8
Last Quarter
Sep 15
New

Hourly Weather History & Observations

Time (EDT) Temp. Heat Index Dew Point Humidity Pressure Visibility Wind Dir Wind Speed Gust Speed Precip Events Conditions
12:15 AM 71.6 °F - - N/A% 30.07 in 10.0 mi SSE 6.9 mph - N/A   Overcast
12:35 AM 71.6 °F - - N/A% 30.06 in 10.0 mi South 5.8 mph - N/A   Overcast
12:55 AM 71.6 °F - - N/A% 30.06 in 10.0 mi SSE 4.6 mph - N/A   Scattered Clouds
1:15 AM 71.6 °F - - N/A% 30.05 in 10.0 mi South 5.8 mph - N/A   Partly Cloudy
1:35 AM 71.6 °F - - N/A% 30.05 in 10.0 mi South 6.9 mph - N/A   Mostly Cloudy
1:55 AM 71.6 °F - - N/A% 30.05 in 10.0 mi South 5.8 mph - N/A   Partly Cloudy
2:15 AM 71.6 °F - - N/A% 30.04 in 10.0 mi South 3.5 mph - N/A   Clear
2:35 AM 71.6 °F - - N/A% 30.04 in 10.0 mi South 5.8 mph - N/A   Clear
2:55 AM 71.6 °F - - N/A% 30.04 in 10.0 mi South 3.5 mph - N/A   Clear
3:15 AM 69.8 °F - - N/A% 30.03 in 10.0 mi Calm Calm - N/A   Clear
3:35 AM 69.8 °F - - N/A% 30.03 in 10.0 mi Calm Calm - N/A   Clear
3:55 AM 69.8 °F - - N/A% 30.03 in 10.0 mi Calm Calm - N/A   Partly Cloudy
4:15 AM 69.8 °F - - N/A% 30.02 in 10.0 mi Calm Calm - N/A   Scattered Clouds
4:35 AM 69.8 °F - - N/A% 30.02 in 10.0 mi Calm Calm - N/A   Mostly Cloudy
4:55 AM 69.8 °F - - N/A% 30.02 in 10.0 mi Calm Calm - N/A   Scattered Clouds
5:15 AM 69.8 °F - - N/A% 30.02 in 10.0 mi Calm Calm - N/A   Scattered Clouds
5:35 AM 69.8 °F - - N/A% 30.02 in 10.0 mi Calm Calm - N/A   Scattered Clouds
5:55 AM 69.8 °F - - N/A% 30.03 in 10.0 mi Calm Calm - N/A   Clear
6:15 AM 69.8 °F - - N/A% 30.04 in 10.0 mi Calm Calm - N/A   Clear
6:35 AM 69.8 °F - - N/A% 30.04 in 10.0 mi Calm Calm - N/A   Clear
6:50 AM 69.8 °F - 69.8 °F 100% 30.05 in 10.0 mi Calm Calm - N/A   Partly Cloudy
7:50 AM 69.8 °F - 69.8 °F 100% 30.05 in 10.0 mi Calm Calm - N/A   Partly Cloudy
8:50 AM 71.6 °F - 71.6 °F 100% 30.06 in 10.0 mi Calm Calm - N/A   Partly Cloudy
9:50 AM 73.4 °F - 71.6 °F 94% 30.07 in 10.0 mi South 4.6 mph - N/A   Partly Cloudy
10:50 AM 77.0 °F - 71.6 °F 83% 30.07 in 10.0 mi South 4.6 mph - N/A   Partly Cloudy
11:50 AM 80.6 °F 84.6 °F 71.6 °F 74% 30.08 in 10.0 mi South 5.8 mph - N/A   Mostly Cloudy
12:50 PM 77.0 °F - 73.4 °F 89% 30.08 in 3.0 mi SSW 11.5 mph - N/A Rain , Thunderstorm Thunderstorms and Rain
1:50 PM 71.6 °F - 68.0 °F 88% 30.07 in 4.0 mi South 9.2 mph - N/A   Overcast
2:50 PM 71.6 °F - 69.8 °F 94% 30.07 in 10.0 mi South 5.8 mph - N/A   Overcast
3:50 PM 77.0 °F - 73.4 °F 89% 30.05 in 10.0 mi SSW 5.8 mph - N/A   Scattered Clouds
4:50 PM 78.8 °F - 73.4 °F 83% 30.04 in 10.0 mi WSW 6.9 mph - N/A   Scattered Clouds
5:50 PM 78.8 °F - 73.4 °F 83% 30.05 in 10.0 mi SSW 10.4 mph - N/A   Mostly Cloudy
6:50 PM 77.0 °F - 73.4 °F 89% 30.05 in 10.0 mi SSW 9.2 mph - N/A   Scattered Clouds
7:55 PM 75.2 °F - - N/A% 30.05 in 10.0 mi SSW 5.8 mph - N/A   Clear
8:15 PM 75.2 °F - - N/A% 30.05 in 10.0 mi SSW 5.8 mph - N/A   Clear
8:35 PM 75.2 °F - - N/A% 30.06 in 10.0 mi SSW 4.6 mph - N/A   Clear
8:55 PM 75.2 °F - - N/A% 30.06 in 10.0 mi South 3.5 mph - N/A   Clear
9:15 PM 75.2 °F - - N/A% 30.06 in 10.0 mi South 4.6 mph - N/A   Scattered Clouds
9:35 PM 75.2 °F - - N/A% 30.06 in 10.0 mi South 4.6 mph - N/A   Partly Cloudy
9:55 PM 75.2 °F - - N/A% 30.07 in 10.0 mi South 6.9 mph - N/A   Partly Cloudy
10:15 PM 75.2 °F - - N/A% 30.07 in 10.0 mi South 5.8 mph - 0.01 in   Partly Cloudy
10:35 PM 73.4 °F - - N/A% 30.08 in 10.0 mi South 4.6 mph - 0.01 in   Clear
10:55 PM 73.4 °F - - N/A% 30.08 in 10.0 mi South 5.8 mph - 0.01 in   Clear
11:15 PM 73.4 °F - - N/A% 30.09 in 10.0 mi South 8.1 mph - N/A   Partly Cloudy
11:35 PM 73.4 °F - - N/A% 30.09 in 10.0 mi South 4.6 mph - N/A   Scattered Clouds